Dewpoint
67 67 67 67 67 67 68 68 68 68 66 65 65 65 65 65 65 65 65 64 64 64 64 64 64 64 64 64 64 63 63 63 63 63 63 63 63 63 63 63 63 63 63 63 64 64 64 64 64 64 64 64 64 64 64 64 64 65 65 65 66 66 66 66 66 66 66 66 67 67 67 67 67 67 67 68 68 68 68 67 67 67 67 67 67 66 66 66 66 66 65 65 65 65 65 64 64 64 63 61 60 58 56
66 67 67 67 66 66 67 67 68 68 66 65 64 64 64 64 64 64 64 64 64 64 64 64 64 64 63 63 63 63 63 63 63 63 63 63 63 63 63 63 63 63 63 63 63 64 64 64 64 64 63 63 63 64 64 64 64 64 64 64 65 65 65 66 66 66 66 66 66 66 66 67 67 67 67 67 67 67 67 67 67 67 67 67 66 66 66 66 66 66 65 65 65 65 64 64 64 64 63 61 60 58 57
65 66 66 66 65 65 66 67 68 67 66 64 64 63 64 64 64 64 64 64 64 64 64 64 63 63 63 63 63 63 63 62 62 62 62 62 62 63 63 63 63 63 63 63 63 63 63 63 63 63 63 63 63 63 63 63 63 64 64 64 64 64 64 65 65 66 66 66 66 66 66 66 66 66 66 67 67 67 67 67 67 67 67 67 66 66 66 66 66 65 65 65 65 65 64 64 63 62 61 60 59 59 58
63 64 65 65 64 64 64 65 67 66 65 64 63 63 63 63 64 64 64 64 64 63 63 63 63 63 63 63 62 62 62 62 62 62 62 62 62 63 63 63 64 64 63 63 63 63 63 63 63 63 63 63 63 62 62 63 63 63 63 63 64 64 64 64 64 65 65 66 66 66 66 66 65 65 66 66 66 67 67 67 67 67 67 66 66 66 66 66 65 65 65 65 65 64 63 61 60 58 58 58 57 58 58
61 62 63 64 63 63 64 64 65 65 64 64 63 62 62 62 63 63 63 63 63 63 63 63 63 63 63 62 62 62 62 62 62 62 62 62 63 63 64 64 64 64 64 64 63 62 63 63 63 63 62 62 63 62 62 62 62 63 63 63 63 63 64 64 64 64 64 65 66 66 66 66 65 65 65 66 66 66 67 67 67 67 66 66 66 66 65 65 65 65 65 65 65 64 60 57 55 55 54 54 55 56 57
59 60 61 62 62 63 63 64 64 65 65 64 63 62 62 62 63 63 63 63 63 63 62 62 63 63 63 63 63 63 63 63 63 63 63 63 63 64 64 64 65 65 65 65 64 62 62 62 62 62 62 62 63 62 62 62 62 62 62 63 63 63 63 63 64 64 64 64 65 66 66 66 66 66 66 66 66 66 66 66 66 66 66 66 66 65 65 65 65 64 64 64 64 61 58 55 54 53 52 52 53 53 55
56 58 60 61 62 63 63 64 64 64 64 64 64 64 63 63 63 64 64 64 64 62 62 62 63 63 63 63 63 63 63 63 62 63 64 63 64 64 64 64 63 63 64 64 64 62 61 61 61 62 62 63 62 62 62 62 62 62 62 62 62 63 63 63 63 64 64 64 65 65 66 66 66 66 66 66 66 66 66 65 64 64 64 65 65 65 65 64 64 64 64 63 60 58 56 55 55 54 53 52 51 52 53
56 57 59 61 63 63 63 64 64 64 64 64 65 65 64 64 64 65 65 65 65 62 61 62 63 64 63 63 63 63 63 63 63 64 64 64 64 64 64 63 61 61 61 60 61 62 61 61 61 62 62 62 63 62 62 62 62 62 62 62 62 62 63 63 63 63 64 64 64 65 66 66 66 66 66 66 66 66 65 64 64 62 62 63 64 64 64 64 64 64 63 61 58 57 56 56 55 54 53 52 51 51 51
57 56 58 60 61 62 63 64 64 64 63 63 65 65 66 66 65 66 65 65 65 63 63 63 64 64 64 64 64 64 64 64 64 64 64 64 64 63 63 63 62 61 60 60 60 61 62 62 62 62 62 63 63 63 63 62 62 62 62 62 62 62 62 63 63 63 63 64 64 65 65 66 66 66 66 66 66 65 64 64 62 61 60 60 61 63 63 64 64 63 61 60 58 56 56 55 55 54 53 52 51 51 51
55 55 56 58 59 61 63 64 64 64 64 64 64 65 66 65 65 65 65 65 65 65 65 65 66 65 65 65 65 64 64 64 64 64 64 64 63 63 62 62 62 62 61 61 61 60 60 61 61 62 62 63 63 63 63 63 63 62 62 62 62 62 62 62 62 62 63 63 64 65 65 65 66 66 66 65 66 65 64 63 62 60 60 59 59 60 61 62 62 61 60 58 57 56 55 55 54 53 52 52 51 51 51
54 55 55 57 58 60 62 63 62 63 63 64 64 64 64 64 64 64 65 65 65 65 65 65 65 66 66 65 65 65 64 64 64 64 64 64 63 63 63 62 62 63 62 61 61 61 61 60 61 62 62 63 63 62 63 63 63 62 62 62 62 62 62 61 61 61 61 62 63 63 64 64 65 65 65 64 64 64 63 62 61 60 59 58 58 59 60 62 61 60 59 58 56 56 55 55 54 53 53 52 52 51 51
53 54 54 55 57 58 59 60 60 61 62 63 64 64 64 64 64 64 65 65 65 65 64 64 64 64 64 65 65 65 64 64 64 64 64 63 63 63 63 63 63 63 61 60 61 61 61 61 62 62 62 62 62 63 63 63 62 63 63 62 62 62 62 61 60 60 60 60 60 59 60 62 64 65 64 64 64 63 62 61 60 60 59 58 58 63 64 65 64 60 58 57 56 55 55 55 54 53 53 53 53 52 51
51 52 53 54 55 56 56 57 59 60 61 62 64 64 64 64 64 64 64 65 65 65 64 63 63 63 64 64 64 64 64 64 64 64 64 63 63 63 63 63 63 62 61 60 60 60 61 61 62 62 62 62 63 63 63 62 63 63 64 63 62 62 61 60 59 59 59 58 58 57 57 59 60 63 64 64 63 63 62 62 62 62 61 60 62 65 67 67 66 64 61 58 56 55 55 55 55 55 54 54 53 53 52
50 51 52 53 55 55 55 56 58 60 61 62 64 64 64 64 64 64 64 64 64 64 63 63 62 63 64 63 62 61 62 63 63 64 64 63 64 63 62 62 62 61 60 60 60 61 61 61 61 62 61 61 62 61 62 62 62 62 61 61 60 60 60 60 60 59 58 58 57 57 57 57 57 58 60 60 61 62 62 62 62 63 62 62 62 64 64 65 65 64 62 60 58 56 56 56 55 56 55 55 54 53 53
49 49 50 52 53 55 56 57 59 60 62 63 64 64 63 63 63 63 63 64 63 63 62 61 62 62 62 61 61 61 61 61 62 63 63 63 64 62 61 60 60 60 60 60 60 60 61 61 60 61 61 60 61 61 61 61 61 60 59 58 58 58 59 59 59 59 59 59 59 58 57 57 57 56 57 57 58 58 59 60 60 61 61 61 61 63 64 64 64 64 63 62 61 58 57 57 57 57 56 55 54 54 54
47 47 48 50 51 53 54 56 58 60 62 63 62 62 61 61 62 62 62 62 62 62 61 61 62 61 61 61 61 61 61 61 63 63 63 63 62 61 60 60 60 60 60 60 60 60 60 60 61 61 61 60 59 59 59 59 59 58 57 57 56 57 57 57 57 57 58 59 59 58 58 58 57 57 56 56 56 56 57 58 58 59 60 60 60 62 62 63 63 64 64 64 64 62 59 57 58 57 56 55 55 54 54
45 46 46 47 48 50 52 54 55 57 59 60 60 59 59 60 61 62 62 63 62 62 61 61 61 60 60 60 60 60 60 62 63 63 62 62 60 60 60 60 60 59 59 58 59 60 60 60 60 60 60 59 57 56 56 56 56 56 56 56 55 55 56 56 56 56 56 56 56 57 57 56 56 55 55 55 56 56 56 57 57 58 59 59 60 60 60 61 61 62 63 64 65 65 63 60 58 57 56 56 55 55 55
45 45 45 45 46 48 51 52 53 54 55 56 56 56 57 58 59 60 61 61 60 60 61 60 60 60 60 60 59 60 61 62 60 60 60 60 59 59 60 60 59 59 58 57 57 57 58 59 57 58 58 57 56 55 55 56 56 56 56 55 55 56 56 56 56 56 56 56 56 56 56 55 55 55 55 55 55 55 56 56 56 57 57 57 58 59 60 61 60 61 62 63 64 65 64 63 60 57 56 56 55 55 55
44 45 45 45 45 47 49 51 52 53 53 54 53 55 55 56 57 58 59 59 59 59 60 60 60 59 59 58 58 58 58 57 56 59 59 59 60 58 58 57 55 55 55 55 54 55 56 56 56 56 55 55 55 55 55 56 57 57 56 56 56 57 57 58 58 57 57 57 56 56 56 56 56 55 55 55 55 55 55 55 55 56 56 57 57 58 60 61 60 60 60 60 61 62 62 60 59 58 57 56 55 55 55
42 43 43 42 42 45 46 48 51 52 53 53 53 54 54 54 55 56 57 58 59 58 59 59 58 57 56 56 58 55 52 52 55 56 56 56 58 57 55 54 52 52 52 52 52 53 55 55 55 55 54 54 54 54 55 56 57 57 57 57 58 58 58 58 58 58 59 58 58 58 57 57 56 56 55 55 55 55 55 55 56 56 57 57 57 57 57 57 58 57 57 57 57 57 57 56 56 56 56 56 56 55 55
40 40 41 42 42 42 43 45 47 49 51 52 53 53 53 54 54 55 56 58 59 58 57 56 55 55 56 56 55 50 48 50 53 52 51 52 54 53 52 51 51 51 52 52 51 52 53 54 53 53 53 53 53 54 54 55 55 56 56 56 57 57 58 58 58 59 59 59 59 58 57 56 55 56 56 56 56 55 55 55 56 56 56 56 56 56 56 56 56 56 56 56 56 55 55 55 55 55 55 56 56 56 55
38 39 41 42 40 42 43 44 46 48 51 54 56 56 55 55 54 54 55 55 56 56 55 54 54 56 55 54 51 47 47 47 47 49 52 54 55 55 53 51 51 51 51 51 51 53 54 53 51 52 51 51 51 53 53 54 55 54 54 55 55 56 56 57 58 58 58 59 58 58 57 57 57 58 58 58 58 57 57 56 56 56 56 56 56 56 56 56 56 55 55 55 56 55 55 55 55 55 55 56 56 56 56
36 37 38 39 39 41 43 44 46 48 51 55 57 58 58 57 56 55 55 55 55 54 54 54 55 55 51 47 45 45 45 46 46 50 54 56 56 55 52 51 51 51 50 50 51 54 55 54 51 50 49 49 50 51 51 53 53 52 52 53 55 55 55 56 56 55 56 56 57 57 57 57 58 59 60 60 59 59 59 58 58 58 58 58 57 57 56 56 55 55 55 55 55 55 55 55 56 56 55 55 55 56 56
35 36 36 37 38 39 41 42 44 46 50 52 55 55 55 55 55 55 54 54 52 52 52 53 55 51 48 46 45 45 46 46 46 49 51 54 55 54 51 49 48 49 49 50 54 54 56 56 55 51 48 48 50 50 51 51 51 51 51 52 53 54 55 55 54 53 54 55 56 56 56 57 57 58 60 60 60 60 60 60 60 59 59 59 59 58 57 57 57 56 55 55 55 55 55 55 55 55 55 55 55 55 55
33 34 34 35 37 37 40 42 43 45 46 47 49 49 49 50 50 51 51 50 50 51 54 55 53 50 47 45 43 44 45 46 47 51 51 51 52 54 51 48 46 47 47 48 50 52 54 55 55 51 48 46 48 47 48 49 51 52 51 51 52 54 54 54 54 53 54 55 56 57 57 58 57 58 58 58 58 60 61 62 60 60 60 59 58 58 58 57 57 56 56 55 55 55 55 55 55 55 55 55 55 55 55
32 33 34 34 36 37 38 40 43 44 45 46 46 46 46 46 46 47 48 48 49 50 54 55 50 50 48 46 42 43 44 45 46 51 52 50 48 50 49 47 48 46 45 44 45 49 52 53 53 49 46 45 45 45 45 46 47 48 49 51 54 54 54 54 55 54 54 55 55 56 56 55 55 56 56 56 56 58 59 60 61 61 61 61 59 58 58 57 56 56 56 55 55 55 55 55 55 55 55 55 55 55 55
33 34 35 36 36 37 38 40 42 43 43 44 43 43 43 44 45 46 47 47 47 48 50 49 46 46 46 45 44 41 41 43 44 46 48 48 45 47 47 46 46 46 45 45 43 46 48 49 51 47 44 43 42 44 45 45 45 46 48 51 55 54 53 53 54 52 52 53 53 53 53 53 54 55 55 55 56 57 57 57 58 60 61 62 62 61 60 59 58 57 56 56 56 56 55 55 55 55 55 56 55 55 55
34 35 36 37 38 38 39 41 43 42 43 43 43 43 43 43 43 44 45 45 45 46 46 44 43 43 42 42 42 40 40 41 43 44 46 47 44 46 46 45 44 45 46 46 42 43 44 46 48 46 43 42 40 43 46 47 46 45 47 50 52 51 51 50 51 50 50 50 51 51 51 52 54 53 53 54 55 55 56 56 55 56 58 59 60 60 60 59 58 57 56 56 56 56 56 56 56 56 56 56 56 56 55
34 36 37 37 38 38 39 40 41 41 41 41 42 43 43 43 43 42 42 42 43 43 43 42 42 42 40 39 38 38 39 39 41 44 45 45 43 43 44 44 45 44 46 46 43 42 42 43 46 45 44 42 39 41 43 45 44 44 45 46 49 48 47 48 51 48 47 47 48 49 50 50 51 51 51 52 52 53 54 55 55 55 55 55 55 55 55 55 55 55 56 56 56 56 57 57 56 56 56 56 56 55 55
35 37 37 36 37 37 37 38 39 39 39 40 40 41 42 42 42 42 42 42 43 42 41 41 42 41 39 38 37 37 38 39 40 42 43 43 42 42 42 43 43 43 44 45 44 41 40 41 42 42 41 39 37 38 40 41 40 45 45 44 46 45 44 45 51 48 46 45 46 49 49 49 51 51 50 49 48 49 51 52 52 53 53 52 52 51 51 51 51 53 54 55 55 56 57 57 57 56 56 56 55 55 55
36 37 37 35 35 36 36 37 37 38 39 40 39 40 40 40 40 39 40 41 42 40 40 40 40 39 39 38 37 38 39 40 40 40 41 41 40 39 40 40 41 41 42 43 43 40 39 39 39 41 40 38 37 37 37 38 43 46 45 43 44 43 42 42 46 46 44 44 46 50 48 47 50 51 49 46 45 46 47 48 49 50 49 48 48 48 48 48 49 51 52 53 54 55 56 57 57 57 56 56 55 55 55
36 37 36 34 34 34 35 36 37 37 39 39 38 38 38 38 38 37 37 37 38 37 38 38 38 37 37 37 37 38 39 40 39 39 40 40 39 38 37 38 39 41 42 42 42 40 40 39 37 40 40 39 37 37 37 39 44 43 44 44 42 41 40 39 41 41 41 43 47 51 49 45 44 46 46 46 44 43 43 44 45 45 45 44 44 45 45 46 46 48 50 51 53 55 55 56 57 57 56 56 55 55 55
35 35 35 35 34 34 35 35 36 37 37 37 37 37 37 37 37 36 36 37 37 38 38 37 37 36 36 36 36 38 38 38 38 38 39 40 39 38 37 37 38 40 41 41 41 42 42 40 38 39 40 39 37 37 37 37 41 41 42 42 39 38 38 38 38 39 40 42 43 47 46 43 39 42 43 44 45 42 41 41 42 41 40 39 40 43 44 44 43 45 47 50 51 53 54 55 56 57 57 56 56 55 55
34 34 35 37 37 36 35 35 36 36 37 37 36 36 36 36 36 36 37 37 38 38 37 36 35 35 35 35 35 36 36 36 37 38 38 38 38 37 37 38 38 39 40 41 42 42 42 41 39 41 40 39 38 37 38 38 38 39 39 38 37 37 37 37 38 38 40 41 40 41 40 39 38 39 41 42 44 41 40 39 39 38 37 37 39 42 44 43 41 42 44 47 50 51 53 54 55 57 58 58 57 56 55
33 33 35 37 37 36 35 35 35 35 36 36 36 36 36 36 35 36 36 37 37 36 36 34 34 34 34 35 36 36 35 35 36 37 38 38 39 39 39 38 39 39 39 40 40 42 43 42 40 40 39 38 37 38 39 39 37 37 37 37 35 36 37 38 39 38 39 40 39 39 38 37 37 38 40 42 42 41 40 38 38 37 37 37 37 41 41 40 37 38 41 44 47 49 51 52 54 55 57 59 59 57 56
33 33 33 35 36 35 34 34 33 35 36 36 36 37 37 36 35 35 34 34 33 33 33 32 32 33 33 34 35 34 34 35 35 37 37 38 39 40 40 40 39 39 39 38 38 41 43 43 39 37 37 37 37 37 38 38 37 36 37 36 34 35 36 37 37 37 38 39 39 40 39 38 38 37 38 40 40 41 39 37 37 37 37 37 36 36 34 33 33 34 37 40 43 46 48 50 51 53 55 56 58 58 57
31 31 33 33 34 34 34 33 33 34 35 35 35 36 36 36 35 34 33 32 31 31 31 31 30 31 33 34 34 33 33 33 34 35 36 37 38 39 40 41 40 40 39 38 38 40 42 43 39 37 36 35 35 36 37 37 37 36 35 35 34 34 35 36 38 36 37 37 38 40 39 38 38 38 37 37 39 39 37 35 35 35 37 37 36 34 32 31 32 31 32 34 37 40 42 45 48 50 52 54 55 55 55
30 31 32 33 33 34 33 33 32 33 33 34 33 34 34 33 33 32 31 30 29 29 29 29 29 30 31 33 33 33 33 33 33 33 34 36 37 37 38 40 41 42 42 42 43 44 43 42 39 38 37 36 34 34 35 37 37 36 35 35 35 34 34 35 37 37 37 37 37 38 38 38 38 39 38 37 38 37 35 34 33 35 37 38 37 34 32 29 29 28 28 28 31 34 37 39 43 45 47 50 51 52 53
30 31 31 31 32 33 33 32 32 32 32 33 33 33 32 31 30 30 29 29 29 29 28 28 29 30 32 32 33 33 33 32 31 33 35 36 37 37 37 38 39 39 40 41 42 43 42 40 39 38 38 37 34 34 34 35 34 35 35 36 35 34 35 37 37 38 38 38 41 39 39 40 41 39 39 40 39 36 34 33 33 36 39 41 39 35 31 28 26 26 25 25 25 29 32 35 38 39 42 45 48 49 50
30 30 30 30 31 32 32 32 32 31 31 31 32 31 30 29 29 28 28 29 29 29 28 28 28 31 31 31 31 31 31 32 33 34 35 36 36 37 37 37 37 37 38 40 41 40 37 36 35 35 35 34 33 33 33 33 33 34 35 35 35 34 36 37 39 39 39 39 41 40 42 43 41 37 37 39 38 35 34 34 35 37 40 41 39 34 31 28 27 26 25 24 22 24 27 30 32 34 37 39 41 45 47
28 30 29 29 29 29 30 31 31 31 31 30 30 30 30 29 29 29 29 29 30 29 28 28 28 28 28 29 30 30 32 33 35 35 35 35 36 37 37 37 37 37 38 39 39 38 36 35 35 35 34 33 31 31 32 32 33 34 34 35 35 35 37 39 41 40 39 39 39 38 40 41 38 36 36 37 38 36 35 35 37 38 40 40 37 34 33 31 29 27 25 22 19 20 23 26 28 30 33 36 38 43 47
26 28 28 28 27 28 28 29 29 31 31 31 30 29 29 30 30 30 29 29 29 29 28 28 29 29 29 30 31 30 31 33 35 35 35 34 35 36 36 37 37 38 38 37 37 36 36 37 38 37 36 35 33 33 33 32 33 34 34 35 36 36 36 36 36 36 37 37 37 39 39 39 37 37 36 37 37 37 38 40 46 40 37 37 36 36 35 35 33 29 25 22 19 19 21 23 25 25 27 31 36 42 45
25 26 26 26 26 27 27 28 28 30 32 32 29 29 29 29 28 28 28 28 28 28 28 28 28 28 30 32 33 32 32 32 33 33 33 33 33 34 35 36 37 38 37 36 35 37 37 37 40 40 37 35 34 33 33 33 33 33 33 34 35 35 35 34 34 35 35 36 36 37 37 37 37 39 39 38 37 37 37 40 47 41 38 37 37 37 37 36 34 31 26 23 21 20 19 18 18 18 19 26 38 36 36
24 24 25 25 24 25 26 26 27 29 32 33 31 29 28 29 29 28 27 27 27 27 28 28 27 28 29 31 31 31 31 32 33 33 33 33 33 32 33 34 35 37 36 34 34 37 38 38 38 38 37 35 33 32 33 33 33 33 33 34 35 35 34 34 34 34 35 35 35 34 35 36 36 40 42 40 35 35 35 36 38 38 38 37 37 37 36 35 33 31 29 27 26 23 19 15 12 14 19 26 31 29 28
24 24 24 24 24 24 24 25 25 28 30 30 28 27 28 29 28 26 27 27 26 26 27 28 28 29 29 29 30 29 30 32 34 34 34 33 33 32 33 33 35 38 37 35 34 36 37 37 35 34 33 33 32 33 33 33 33 33 33 33 34 34 34 33 33 33 33 33 33 35 35 36 36 37 37 36 34 34 34 34 35 38 39 38 37 37 36 35 34 33 31 29 28 24 21 17 13 16 18 19 20 19 19
24 24 23 24 24 24 24 24 24 26 28 28 25 26 27 27 24 24 25 26 25 26 27 27 28 28 27 27 27 27 28 30 33 33 33 33 33 33 33 33 34 38 39 38 35 36 37 37 34 33 32 32 33 34 34 34 33 34 34 34 34 33 33 32 32 32 33 34 36 35 34 35 36 36 36 36 35 34 34 34 34 36 37 38 37 36 37 37 37 35 33 30 27 24 22 20 19 20 20 19 19 19 17
24 24 23 23 23 24 24 23 24 24 25 26 25 25 26 26 24 24 24 25 25 25 26 26 26 26 26 26 26 26 27 28 31 31 31 31 32 32 33 33 34 37 39 39 36 36 37 37 36 33 31 30 32 33 34 34 34 34 34 34 34 34 33 32 32 32 33 33 35 34 34 34 35 35 35 35 36 35 34 34 34 34 36 37 37 37 38 39 40 38 36 33 31 28 26 24 24 26 25 23 22 22 21
25 24 23 23 23 23 23 23 24 24 24 24 24 26 26 24 24 24 24 24 24 24 24 25 25 25 26 26 26 27 27 27 27 28 29 30 30 30 31 32 33 37 39 38 37 37 38 38 38 36 33 30 29 32 33 33 34 34 34 34 33 34 34 33 33 33 32 32 32 33 34 35 37 36 35 35 35 36 36 35 34 34 34 36 37 37 38 40 41 39 38 37 37 35 33 31 30 29 28 26 24 23 24
26 25 24 23 23 24 24 24 24 24 24 24 25 26 25 24 23 24 24 25 25 25 25 25 25 24 25 27 27 28 27 26 24 26 27 28 27 27 28 28 30 33 36 37 37 39 41 41 40 38 35 32 29 29 30 31 32 33 33 33 33 35 35 34 33 33 33 32 32 38 39 38 36 35 34 34 35 35 35 35 34 34 34 34 35 35 36 37 41 40 39 39 39 38 37 36 35 33 31 28 27 24 24
27 26 24 23 23 25 26 25 24 24 24 24 23 24 24 23 23 23 24 24 25 26 26 25 24 24 24 25 25 25 25 25 24 24 24 24 24 25 26 28 29 29 32 35 37 37 39 41 41 40 37 34 30 29 28 29 30 31 31 32 33 34 34 33 33 33 33 33 33 44 45 41 36 35 35 35 35 35 34 33 33 33 33 33 33 33 33 33 35 33 33 33 34 36 36 37 36 35 33 32 30 28 26
27 26 25 24 24 25 26 25 23 24 24 24 23 25 25 24 23 24 24 24 24 26 26 25 24 24 23 22 22 24 26 26 25 26 24 23 24 25 27 28 29 29 30 32 34 35 37 38 41 41 39 37 33 31 29 29 29 30 31 32 33 34 34 33 33 33 33 33 33 36 38 38 37 35 35 35 34 34 33 33 32 32 32 32 32 31 31 32 33 33 33 33 33 33 33 33 33 35 35 35 34 33 30
25 27 26 25 24 23 24 25 23 24 25 26 23 25 26 26 25 24 24 24 24 25 25 25 25 24 24 23 23 27 29 29 25 25 24 23 24 25 26 28 29 29 30 31 33 35 36 37 40 40 40 39 37 33 30 29 29 30 31 32 33 35 34 33 33 33 33 33 33 33 33 34 34 34 34 34 33 33 33 33 33 32 31 31 31 31 31 31 32 32 32 32 32 31 31 31 31 33 34 35 35 34 33
24 26 26 25 24 23 23 23 23 23 25 26 24 24 26 28 27 26 25 24 24 24 24 24 26 27 25 23 23 27 28 28 24 24 23 23 23 24 26 27 28 29 29 30 30 34 36 37 38 38 39 39 37 35 32 30 29 29 29 30 32 33 33 32 32 33 33 32 32 32 32 32 33 33 33 33 33 33 33 33 33 32 31 31 31 31 31 31 31 31 31 31 30 30 30 30 30 32 32 32 34 34 34
24 25 25 24 22 22 22 23 23 23 24 24 24 24 25 26 27 26 25 25 25 26 25 24 24 24 24 23 23 25 25 25 24 24 24 24 23 24 26 27 27 28 28 29 29 31 33 35 35 37 37 38 37 36 34 32 31 30 30 31 33 33 32 31 31 31 32 32 32 32 33 33 32 33 33 33 32 32 32 32 32 31 31 31 30 30 31 31 31 31 31 31 30 30 30 30 30 30 30 30 31 31 32
24 24 24 24 22 22 22 23 23 23 24 24 25 24 24 25 26 25 25 25 26 28 27 25 24 23 22 22 23 23 23 23 23 24 24 24 24 25 26 26 27 28 28 28 29 29 30 31 32 33 34 34 34 33 33 32 32 31 30 31 33 33 31 31 31 31 32 32 32 32 33 33 33 33 32 32 32 32 31 31 31 30 30 30 30 30 30 30 31 31 31 31 30 30 30 29 29 29 29 29 29 28 29
25 25 24 24 22 22 22 23 23 24 24 25 25 25 25 25 26 25 25 25 26 28 28 27 25 23 23 22 23 22 22 21 21 22 23 24 25 25 25 25 26 27 28 28 29 29 30 30 31 31 31 30 31 31 31 31 30 30 30 30 33 32 31 31 32 32 32 32 32 32 32 32 32 32 32 32 32 32 31 31 30 30 29 29 30 29 29 29 30 30 30 30 30 30 30 30 30 30 30 30 30 29 28
25 26 25 24 23 22 22 22 23 24 24 24 25 26 26 26 26 26 26 26 26 27 28 28 27 25 24 23 23 22 21 21 20 21 22 23 24 24 25 26 26 27 28 28 29 29 29 30 30 30 30 30 30 30 30 29 29 30 30 31 32 32 31 31 31 31 31 32 32 32 32 32 32 31 31 31 31 30 30 29 29 29 29 29 29 28 28 28 28 29 29 30 30 31 31 31 30 30 31 31 31 30 30
27 27 26 24 22 21 21 22 23 23 24 24 24 25 26 26 26 27 27 28 27 27 28 29 29 27 26 24 24 23 23 22 22 22 23 24 24 24 25 26 26 26 27 28 28 29 28 28 29 29 29 29 30 30 29 30 30 30 31 31 30 31 30 30 31 32 32 33 33 33 32 31 31 30 29 29 28 28 28 28 28 28 28 28 28 28 28 27 27 28 28 29 29 30 30 30 30 31 31 31 31 31 31
28 28 26 24 21 21 21 21 21 23 23 24 24 24 25 26 26 26 27 28 28 28 28 28 29 28 28 26 25 24 24 24 24 24 25 25 25 24 25 25 25 26 26 27 27 28 28 28 28 28 28 29 30 29 29 29 29 29 29 29 29 30 31 31 32 33 33 33 33 32 31 31 30 30 29 28 27 27 27 26 26 25 25 26 26 26 26 26 26 26 27 28 28 28 29 29 30 30 31 31 30 31 31
29 28 27 25 22 21 21 21 20 22 23 23 24 24 25 26 27 27 28 28 28 28 28 28 29 30 29 28 27 25 24 24 25 26 27 27 26 26 26 26 26 26 26 26 27 27 28 28 28 28 29 29 30 29 28 28 28 28 29 30 31 31 32 32 32 33 33 33 32 31 31 30 30 30 29 28 28 28 27 26 25 25 25 25 25 25 25 25 26 26 26 26 27 27 28 28 29 30 30 31 30 30 30
30 29 27 25 23 22 21 21 21 21 22 23 23 24 25 26 27 28 28 29 29 29 29 29 30 30 30 29 28 26 25 25 25 27 28 27 27 27 27 27 27 28 28 28 28 28 28 28 28 29 30 30 29 29 29 29 29 29 29 30 31 31 32 33 33 33 33 32 31 31 30 30 30 29 29 29 29 28 28 27 26 25 25 25 25 25 25 25 25 25 25 25 26 26 27 28 28 29 30 30 30 30 30